TimeCST,TemperatureF,Dew PointF,Humidity,Sea Level PressureIn,VisibilityMPH,Wind Direction,Wind SpeedMPH,Gust SpeedMPH,PrecipitationIn,Events,Conditions,WindDirDegrees,DateUTC
12:12 AM,37.4,27.3,67,30.26,10.0,South,8.1,-,N/A,,Scattered Clouds,170,2012-11-14 06:12:00
12:32 AM,37.4,27.5,67,30.26,10.0,South,9.2,-,N/A,,Scattered Clouds,170,2012-11-14 06:32:00
12:52 AM,37.4,27.5,67,30.25,10.0,South,8.1,-,N/A,,Scattered Clouds,170,2012-11-14 06:52:00
1:12 AM,37.2,27.5,68,30.25,10.0,South,8.1,-,N/A,,Scattered Clouds,180,2012-11-14 07:12:00
1:32 AM,37.4,27.9,68,30.25,10.0,South,9.2,-,N/A,,Clear,180,2012-11-14 07:32:00
1:52 AM,37.4,28.0,69,30.25,10.0,South,6.9,-,N/A,,Clear,180,2012-11-14 07:52:00
2:12 AM,37.6,28.2,69,30.25,10.0,South,8.1,-,N/A,,Clear,180,2012-11-14 08:12:00
2:32 AM,37.4,28.4,70,30.25,10.0,South,4.6,-,N/A,,Scattered Clouds,190,2012-11-14 08:32:00
2:52 AM,37.4,28.8,71,30.25,10.0,South,6.9,-,N/A,,Scattered Clouds,180,2012-11-14 08:52:00
3:12 AM,37.0,28.9,73,30.25,10.0,South,5.8,-,N/A,,Scattered Clouds,170,2012-11-14 09:12:00
3:32 AM,36.9,29.1,74,30.25,10.0,South,3.5,-,N/A,,Scattered Clouds,180,2012-11-14 09:32:00
3:52 AM,36.5,29.3,75,30.25,10.0,South,3.5,-,N/A,,Mostly Cloudy,170,2012-11-14 09:52:00
4:12 AM,36.5,29.3,75,30.25,10.0,South,3.5,-,N/A,,Overcast,180,2012-11-14 10:12:00
4:32 AM,36.5,29.8,77,30.25,10.0,Calm,Calm,-,N/A,,Overcast,0,2012-11-14 10:32:00
4:52 AM,36.5,30.0,77,30.25,10.0,South,3.5,-,N/A,,Overcast,180,2012-11-14 10:52:00
5:12 AM,36.7,30.2,77,30.24,10.0,South,4.6,-,N/A,,Overcast,180,2012-11-14 11:12:00
5:32 AM,36.9,30.2,77,30.25,10.0,South,3.5,-,N/A,,Overcast,190,2012-11-14 11:32:00
6:12 AM,36.5,30.4,78,30.25,10.0,South,4.6,-,N/A,,Overcast,190,2012-11-14 12:12:00
6:32 AM,36.5,30.7,80,30.24,10.0,South,3.5,-,N/A,,Overcast,180,2012-11-14 12:32:00
6:52 AM,36.3,30.6,80,30.24,10.0,South,6.9,-,N/A,,Overcast,180,2012-11-14 12:52:00
7:12 AM,35.6,30.2,81,30.25,10.0,South,5.8,-,N/A,,Mostly Cloudy,180,2012-11-14 13:12:00
7:32 AM,35.2,30.4,82,30.25,10.0,South,4.6,-,N/A,,Mostly Cloudy,180,2012-11-14 13:32:00
7:52 AM,35.6,30.7,82,30.25,10.0,South,5.8,-,N/A,,Mostly Cloudy,180,2012-11-14 13:52:00
8:13 AM,36.5,31.1,81,30.25,10.0,South,5.8,-,N/A,,Mostly Cloudy,170,2012-11-14 14:13:00
8:32 AM,36.7,31.1,80,30.25,10.0,South,4.6,-,N/A,,Scattered Clouds,190,2012-11-14 14:32:00
8:52 AM,37.6,31.8,80,30.26,10.0,SSW,3.5,-,N/A,,Scattered Clouds,200,2012-11-14 14:52:00
9:12 AM,38.5,32.0,78,30.26,10.0,South,4.6,-,N/A,,Mostly Cloudy,190,2012-11-14 15:12:00
9:32 AM,39.6,32.4,75,30.26,10.0,SSW,3.5,-,N/A,,Mostly Cloudy,210,2012-11-14 15:32:00
9:52 AM,41.4,32.7,71,30.26,10.0,SSW,4.6,-,N/A,,Scattered Clouds,200,2012-11-14 15:52:00
10:12 AM,43.7,33.4,67,30.26,10.0,SSW,8.1,-,N/A,,Clear,210,2012-11-14 16:12:00
10:32 AM,45.1,33.6,64,30.26,10.0,SSW,5.8,-,N/A,,Clear,200,2012-11-14 16:32:00
10:52 AM,45.9,33.8,63,30.25,10.0,SSW,5.8,-,N/A,,Clear,210,2012-11-14 16:52:00
11:12 AM,47.7,33.8,59,30.25,10.0,SW,6.9,-,N/A,,Clear,230,2012-11-14 17:12:00
11:32 AM,46.4,33.8,62,30.25,10.0,SSW,4.6,-,N/A,,Clear,210,2012-11-14 17:32:00
11:52 AM,48.4,33.4,56,30.23,10.0,SSW,3.5,-,N/A,,Clear,200,2012-11-14 17:52:00
12:13 PM,50.0,33.8,54,30.22,10.0,South,4.6,-,N/A,,Clear,190,2012-11-14 18:13:00
12:32 PM,50.4,32.0,49,30.22,10.0,SW,6.9,-,N/A,,Clear,220,2012-11-14 18:32:00
12:52 PM,50.9,31.8,48,30.21,10.0,SSW,6.9,-,N/A,,Clear,210,2012-11-14 18:52:00
1:12 PM,51.3,31.5,47,30.21,10.0,SSW,8.1,-,N/A,,Clear,200,2012-11-14 19:12:00
1:32 PM,51.8,31.6,46,30.21,10.0,SW,6.9,-,N/A,,Clear,220,2012-11-14 19:32:00
1:52 PM,51.1,30.9,46,30.20,10.0,SW,5.8,-,N/A,,Clear,220,2012-11-14 19:52:00
2:12 PM,51.4,31.5,46,30.20,10.0,SSW,5.8,-,N/A,,Scattered Clouds,210,2012-11-14 20:12:00
2:32 PM,52.2,31.1,45,30.20,10.0,SSW,8.1,-,N/A,,Mostly Cloudy,210,2012-11-14 20:32:00
2:52 PM,50.7,30.9,47,30.20,10.0,SSW,9.2,-,N/A,,Mostly Cloudy,210,2012-11-14 20:52:00
3:12 PM,50.0,32.0,50,30.19,10.0,SSW,6.9,-,N/A,,Overcast,210,2012-11-14 21:12:00
3:32 PM,49.5,32.9,53,30.19,10.0,SSW,3.5,-,N/A,,Overcast,200,2012-11-14 21:32:00
3:52 PM,49.1,33.6,55,30.19,10.0,Calm,Calm,-,N/A,,Scattered Clouds,0,2012-11-14 21:52:00
4:12 PM,48.4,34.0,58,30.19,10.0,Calm,Calm,-,N/A,,Clear,0,2012-11-14 22:12:00
4:32 PM,47.5,33.8,59,30.18,10.0,Calm,Calm,-,N/A,,Clear,0,2012-11-14 22:32:00
4:52 PM,45.7,33.4,62,30.17,10.0,SSE,5.8,-,N/A,,Clear,160,2012-11-14 22:52:00
5:13 PM,46.6,32.7,59,30.17,10.0,SSE,3.5,-,N/A,,Scattered Clouds,150,2012-11-14 23:13:00
5:32 PM,43.9,32.9,65,30.17,10.0,SSE,3.5,-,N/A,,Scattered Clouds,160,2012-11-14 23:32:00
5:52 PM,42.3,33.1,70,30.17,10.0,Calm,Calm,-,N/A,,Scattered Clouds,0,2012-11-14 23:52:00
6:12 PM,43.7,32.9,66,30.17,10.0,Calm,Calm,-,N/A,,Clear,0,2012-11-15 00:12:00
6:33 PM,43.5,32.4,65,30.17,10.0,Calm,Calm,-,N/A,,Clear,0,2012-11-15 00:33:00
6:52 PM,42.1,32.2,68,30.17,10.0,SW,4.6,-,N/A,,Scattered Clouds,220,2012-11-15 00:52:00
7:12 PM,42.8,32.4,67,30.17,10.0,SSW,3.5,-,N/A,,Mostly Cloudy,210,2012-11-15 01:12:00
7:33 PM,41.9,32.7,70,30.17,10.0,SSW,3.5,-,N/A,,Overcast,200,2012-11-15 01:33:00
7:52 PM,41.7,32.7,70,30.17,10.0,South,3.5,-,N/A,,Mostly Cloudy,190,2012-11-15 01:52:00
8:32 PM,43.3,32.9,67,30.16,10.0,South,4.6,-,N/A,,Clear,180,2012-11-15 02:32:00
8:52 PM,43.9,32.9,65,30.16,10.0,South,4.6,-,N/A,,Clear,180,2012-11-15 02:52:00
9:13 PM,44.4,32.5,63,30.16,10.0,South,6.9,-,N/A,,Clear,180,2012-11-15 03:13:00
9:32 PM,43.7,32.2,64,30.16,10.0,South,5.8,-,N/A,,Clear,190,2012-11-15 03:32:00
9:52 PM,42.4,32.0,67,30.16,10.0,South,6.9,-,N/A,,Clear,190,2012-11-15 03:52:00
10:13 PM,41.5,32.0,69,30.16,10.0,South,4.6,-,N/A,,Clear,180,2012-11-15 04:13:00
10:32 PM,40.6,32.0,71,30.16,10.0,South,6.9,-,N/A,,Clear,180,2012-11-15 04:32:00
10:52 PM,40.1,32.0,73,30.16,10.0,South,6.9,-,N/A,,Clear,180,2012-11-15 04:52:00
11:01 PM,40.5,32.0,72,30.16,10.0,South,8.1,-,N/A,,Clear,180,2012-11-15 05:01:00
11:36 PM,41.4,31.8,69,30.15,10.0,South,8.1,-,N/A,,Clear,170,2012-11-15 05:36:00
11:52 PM,41.5,31.6,68,30.15,10.0,South,9.2,-,N/A,,Clear,180,2012-11-15 05:52:00